DW6145 Weather Reports


time (UTC)temp
C
wind
direction
speed
KPH
gust
KPH
rain 1hr
cm
rain 24hr
cm
rain mn
cm
humidity
%
barometer
mb
20260507140603 20 185 9.7 20.9 0.00 0.23 0.03 59 468.0
20260507135603 20 161 9.7 24.1 0.00 0.23 0.03 55 442.2
20260507134604 20 156 11.3 25.7 0.00 0.25 0.03 62 466.6
20260507133603 20 191 12.9 25.7 0.00 0.25 0.03 60 471.1
20260507133045 21 164 9.7 29.0 0.00 0.28 0.03 58 464.1
20260507131603 20 131 12.9 25.7 0.00 0.30 0.03 59 468.6
20260507130603 21 152 9.7 27.4 0.00 0.33 0.03 62 468.0
20260507125603 21 164 9.7 20.9 0.00 0.33 0.03 62 553.6
20260507124603 21 214 11.3 24.1 0.00 0.33 0.03 64 473.4
20260507123603 21 190 4.8 17.7 0.00 0.33 0.03 60 450.3
20260507122604 21 139 6.4 17.7 0.00 0.33 0.03 61 468.0
20260507121603 21 171 4.8 16.1 0.00 0.33 0.03 51 463.4
20260507120603 21 182 4.8 14.5 0.00 0.36 0.03 54 467.8
20260507115603 21 206 6.4 17.7 0.00 0.36 0.03 55 454.9
20260507114603 21 191 3.2 14.5 0.00 0.36 0.03 55 470.5
20260507113603 21 182 3.2 12.9 0.00 0.36 0.03 56 489.7
20260507112604 21 112 3.2 14.5 0.00 0.38 0.03 59 463.7
20260507111603 20 175 4.8 16.1 0.00 0.38 0.03 61 467.9
20260507111043 20 111 3.2 12.9 0.00 0.51 0.03 62 463.6
20260507105603 20 121 3.2 14.5 0.00 0.51 0.03 63 472.5
20260507104603 20 158 3.2 11.3 0.00 0.56 0.03 65 484.6
20260507103604 20 164 6.4 14.5 0.00 0.71 0.03 67 470.9
20260507102604 20 196 6.4 14.5 0.00 1.12 0.03 69 522.7
20260507101603 20 138 6.4 17.7 0.00 1.91 0.03 69 468.1
20260507100604 19 160 6.4 17.7 0.00 2.13 0.03 68 468.0
20260507100103 19 199 8.0 22.5 0.00 2.21 0.03 70 466.4
20260507094603 19 175 9.7 20.9 0.00 2.31 0.03 69 473.2
20260507093603 19 158 6.4 17.7 0.00 2.36 0.03 70 468.3
20260507092604 20 137 9.7 20.9 0.00 2.46 0.03 67 468.0
20260507091603 19 125 8.0 19.3 0.00 2.49 0.03 69 468.0
20260507090603 19 209 8.0 22.5 0.00 2.49 0.03 70 518.1
20260507085603 19 153 11.3 24.1 0.00 2.49 0.03 73 476.1
20260507084602 19 135 8.0 16.1 0.00 2.51 0.03 72 607.9
20260507083602 18 164 8.0 20.9 0.00 2.51 0.03 73 508.5
20260507082602 18 153 8.0 16.1 0.00 2.51 0.03 76 469.3
20260507081602 17 180 8.0 16.1 0.00 2.54 0.03 76 482.0
20260507080602 17 178 8.0 16.1 0.00 2.57 0.03 77 468.5
20260507075602 18 158 4.8 14.5 0.00 2.59 0.03 79 467.3
20260507075051 18 113 6.4 17.7 0.00 2.59 0.03 79 470.9
20260507073602 18 138 6.4 14.5 0.00 2.64 0.03 81 468.3
20260507072603 17 134 8.0 14.5 0.00 2.67 0.03 83 467.2
20260507071602 16 147 3.2 11.3 0.00 2.67 0.03 88 467.9
20260507070602 16 161 1.6 11.3 0.00 2.67 0.03 90 468.1
20260507065602 16 161 3.2 11.3 0.00 2.67 0.03 90 475.9
20260507064603 16 132 4.8 8.0 0.00 2.69 0.03 92 479.7
20260507063602 16 151 4.8 12.9 0.00 2.77 0.03 93 445.2
20260507062605 15 138 3.2 11.3 0.00 2.95 0.03 94 473.3
20260507061602 15 139 0.0 9.7 0.00 3.05 0.03 94 473.4
20260507060603 15 135 4.8 12.9 0.00 3.20 0.03 95 464.5
20260507055603 15 115 4.8 17.7 0.00 3.33 0.03 95 473.2
20260507054604 15 117 3.2 11.3 0.00 3.40 0.03 96 473.3
20260507053604 15 105 3.2 12.9 0.00 3.40 0.03 97 473.3
20260507052601 15 118 1.6 6.4 0.00 3.40 0.03 97 466.4
20260507051602 15 118 1.6 6.4 0.00 3.40 0.03 97 467.9
20260507050615 15 127 0.0 4.8 0.00 3.40 0.03 97 468.8
20260507045602 15 127 0.0 3.2 0.00 3.40 0.03 97 484.5
20260507044605 14 127 0.0 0.0 0.00 3.40 0.03 97 472.7
20260507044041 14 127 0.0 0.0 0.00 3.40 0.03 96 466.1
20260507042603 14 127 0.0 0.0 0.00 3.40 0.03 96 470.9
20260507041603 14 127 0.0 0.0 0.00 3.40 0.03 96 498.6
20260507040606 14 127 3.2 8.0 0.00 3.40 0.03 96 468.4
20260507040056 14 127 3.2 6.4 0.00 3.40 0.03 96 467.9
20260507034604 14 127 0.0 4.8 0.00 3.40 0.03 96 468.7
20260507033602 14 127 0.0 0.0 0.00 3.40 0.03 96 475.6
20260507032602 14 127 0.0 0.0 0.00 3.40 0.03 96 468.3
20260507031606 14 127 0.0 4.8 0.00 3.40 0.03 96 467.9
20260507030602 14 127 0.0 4.8 0.00 3.40 0.03 96 458.7
20260507025602 15 127 0.0 0.0 0.00 3.40 0.03 96 459.9
20260507024605 15 127 0.0 0.0 0.00 3.40 0.03 96 556.6
20260507023604 15 127 0.0 6.4 0.00 3.40 0.03 96 467.9
20260507022602 15 123 3.2 9.7 0.00 3.40 0.03 96 468.0
20260507021603 15 131 3.2 8.0 0.00 3.40 0.03 96 467.9
20260507020604 15 138 0.0 4.8 0.00 3.40 0.03 95 495.5
20260507015602 15 138 0.0 0.0 0.00 3.40 0.03 95 468.1
20260507014604 15 138 0.0 0.0 0.00 3.40 0.03 95 467.9
20260507013603 15 138 0.0 0.0 0.00 3.40 0.03 95 468.2
20260507012602 15 138 0.0 4.8 0.00 3.40 0.03 95 468.1
20260507011603 15 138 0.0 0.0 0.00 3.40 0.03 95 467.9
20260507010605 15 138 0.0 4.8 0.00 3.40 0.03 95 468.0
20260507005600 15 138 0.0 4.8 0.00 3.40 0.03 94 468.0
20260507004600 15 138 3.2 4.8 0.00 3.40 0.03 94 469.8
20260507003552 15 138 1.6 6.4 0.00 3.40 0.03 94 467.2
20260507002553 15 138 0.0 6.4 0.00 3.40 0.03 94 468.0
20260507001550 15 138 0.0 4.8 0.00 3.40 0.03 94 467.9
20260507001037 15 138 0.0 0.0 0.00 3.40 0.03 94 468.1
20260506235545 15 138 0.0 0.0 0.00 3.40 0.03 94 473.3
20260506235024 15 138 0.0 0.0 0.00 3.40 0.03 94 467.5
20260506233542 15 138 0.0 0.0 0.03 3.40 0.03 94 467.5
20260506232541 15 138 3.2 11.3 0.03 3.40 0.03 94 468.0
20260506231534 15 135 1.6 6.4 0.03 3.40 0.03 94 468.0
20260506231037 15 136 1.6 8.0 0.03 3.40 0.03 94 468.0
20260506230448 15 139 0.0 8.0 0.03 3.38 0.03 94 478.5
20260506224531 15 175 1.6 4.8 0.03 3.38 0.03 93 468.0
20260506224015 15 175 0.0 0.0 0.00 3.38 0.00 93 467.2
20260506222532 15 175 0.0 0.0 0.00 3.38 0.00 93 467.9
20260506221531 15 175 0.0 0.0 0.00 3.40 0.00 93 466.9
20260506220530 15 175 0.0 0.0 0.00 3.43 0.00 93 468.0
20260506215524 14 175 0.0 0.0 0.00 3.43 3.43 92 468.0
20260506214523 15 175 0.0 0.0 0.00 3.43 3.43 92 467.9
20260506213524 15 175 0.0 0.0 0.00 3.43 3.43 92 468.0
20260506212516 15 175 0.0 0.0 0.00 3.48 3.43 92 468.0
20260506211517 15 175 0.0 0.0 0.00 3.48 3.43 92 468.0
20260506210516 15 175 0.0 0.0 0.00 3.48 3.43 92 465.0
20260506205516 15 175 0.0 0.0 0.00 3.48 3.43 92 468.0
20260506204516 15 175 0.0 0.0 0.00 3.48 3.43 92 468.0
20260506203510 15 175 0.0 0.0 0.00 3.48 3.43 92 456.4
20260506202947 15 175 1.6 9.7 0.00 3.48 3.43 91 473.5
20260506201510 15 160 3.2 9.7 0.00 3.48 3.43 92 468.0
20260506200510 15 158 3.2 11.3 0.00 3.48 3.43 93 473.3
20260506195505 15 159 0.0 8.0 0.00 3.51 3.43 93 619.6
20260506194507 15 184 3.2 9.7 0.00 3.56 3.43 94 468.0
20260506193506 15 180 1.6 9.7 0.03 3.58 3.43 94 479.7
20260506192506 15 159 1.6 11.3 0.15 3.61 3.43 94 467.2
20260506191502 16 171 1.6 9.7 0.15 3.61 3.43 94 468.0
20260506190504 16 186 4.8 11.3 0.15 3.63 3.43 93 494.6
20260506185505 16 180 4.8 16.1 0.15 3.51 3.43 93 468.3
20260506184504 16 191 4.8 14.5 0.15 3.51 3.43 93 468.1
20260506183503 16 215 8.0 22.5 0.15 3.51 3.38 93 468.0
20260506182946 16 198 4.8 16.1 0.00 3.51 3.25 93 468.0
20260506181501 16 221 6.4 14.5 0.00 3.53 3.25 93 468.1
20260506180456 16 209 3.2 9.7 0.00 3.53 3.25 93 468.1
20260506175458 16 213 3.2 11.3 0.00 3.53 3.25 93 464.0
20260506174452 16 198 1.6 8.0 0.00 3.53 3.25 93 468.0
20260506173454 15 207 0.0 4.8 0.00 3.53 3.25 93 453.1
20260506172450 15 189 3.2 11.3 0.00 3.53 3.25 92 468.0
20260506171447 15 210 3.2 12.9 0.00 3.53 3.25 92 723.2
20260506170458 15 201 4.8 16.1 0.00 3.53 3.25 92 447.2
20260506165442 16 220 6.4 14.5 0.05 3.48 3.25 92 473.3
20260506164447 16 195 8.0 20.9 0.05 3.48 3.25 91 466.6
20260506163444 16 202 9.7 19.3 0.05 3.48 3.25 92 475.9
20260506163408 16 210 8.0 17.7 0.05 3.48 3.25 92 468.1
20260506161442 16 221 4.8 17.7 0.05 3.48 3.25 92 468.1
20260506160443 16 211 1.6 9.7 0.05 3.48 3.25 92 470.4
20260506155442 16 186 1.6 11.3 0.00 3.45 3.20 90 468.1
20260506154444 16 179 1.6 11.3 0.00 3.45 3.20 90 622.3
20260506153444 16 167 6.4 17.7 0.00 3.48 3.20 88 467.5
20260506152922 16 163 9.7 22.5 0.00 3.48 3.20 88 445.6
20260506152402 16 196 9.7 22.5 0.00 3.48 3.20 88 468.0
20260506150440 16 190 8.0 17.7 0.00 3.48 3.20 90 440.1
20260506145918 16 184 8.0 19.3 0.03 3.51 3.20 91 468.4
20260506144437 16 150 9.7 19.3 0.03 3.51 3.20 91 483.9
20260506143438 16 188 8.0 22.5 0.03 3.53 3.20 92 468.0
20260506142915 16 183 8.0 19.3 0.05 3.53 3.20 93 468.7
20260506141431 16 188 3.2 16.1 0.08 3.56 3.20 93 473.3